Regional Weather Roundup
Issued by NWS

Home | Current Version | Previous Version | Graphics & Text | Print | Product List | Glossary On
Versions: 1 2 3 4 5 6 7 8 9 10 11 12 13 14 15 16 17 18 19 20 21 22 23 24 25 26 27 28 29 30 31 32 33 34 35 36 37 38 39 40 41 42 43 44 45 46 47 48 49 50
947
ASUS44 KLIX 201110
RWRLA
LOUISIANA WEATHER ROUNDUP
NATIONAL WEATHER SERVICE NEW ORLEANS LA
500 AM CST SAT DEC 20 2014

NOTE: "FAIR" INDICATES FEW OR NO CLOUDS BELOW 12,000 FEET WITH NO
      SIGNIFICANT WEATHER AND/OR OBSTRUCTIONS TO VISIBILITY.
      SKY/WX - SKY CONDITION AND SIGNIFICANT WEATHER.
      TMP - AIR TEMPERATURE.    DP   - DEWPOINT TEMPERATURE.
      RH  - RELATIVE HUMIDITY.  PRES - PRESSURE.
      HX  - HEAT INDEX.         WCI  - WIND CHILL INDEX.

*  THESE STATIONS ARE NOT NWS OR FAA STATIONS AND ARE NOT UNDER
   NWS QUALITY CONTROL.

LAZ040-048-061>063-065-066-069-201200-
SOUTHEAST LOUISIANA

CITY           SKY/WX    TMP DP  RH WIND       PRES   REMARKS
N.O. AUDUBON     N/A     50  50 100 MISG        N/A
N.O. INTL ARPT CLOUDY    50  47  89 NE17      30.09R FOG
N.O. LAKEFRONT CLOUDY    51  47  86 N21       30.10R
N.O. DOWNTOWN* CLOUDY    48  45  87 N9G18     30.09R
SLIDELL        CLOUDY    48  46  93 NE10      30.09R
BATON ROUGE    CLOUDY    48  45  89 N8        30.11R
BOOTHVILLE     CLOUDY    54  52  93 NE15G25   30.02F
BELLE CHASSE   CLOUDY    51  50  96 N12G21    30.08R
BOGALUSA*        N/A     48  45  87 NE8       30.13S
GALLIANO*      RAIN      53  52  97 MISG      30.05R
NEW ROADS*     CLOUDY    47  46  95 N7        30.13R
GONZALES*      CLOUDY    48  48 100 N6        30.11R FOG
HAMMOND*       NOT AVBL
HOUMA*         CLOUDY    51  50  98 N16       30.06R FOG
PORT FOURCHON* CLOUDY    54  52  94 NE21G28   30.06R

$$

LAZ041-044-053-054-201200-
SOUTHWEST LOUISIANA

CITY           SKY/WX    TMP DP  RH WIND       PRES   REMARKS
LAKE CHARLES   CLOUDY    49  47  93 MISG      30.12R
LAFAYETTE      CLOUDY    48  47  96 N13       30.12R FOG
PATTERSON      CLOUDY    50  48  93 NE13      30.08S
SALT POINT       N/A     53  49  86 VRB6      30.06R
NEW IBERIA     CLOUDY    50  48  93 N14       30.11R
CHENAULT AIRPK NOT AVBL

$$

LAZ027-028-201200-
CENTRAL LOUISIANA

CITY           SKY/WX    TMP DP  RH WIND       PRES   REMARKS
FORT POLK      CLOUDY    47  46  97 N7        30.14R
ALEXANDRIA INT LGT RAIN  47  45  93 N8        30.15R
ALEXANDRIA     CLOUDY    46  45  96 VRB3      30.16R

$$

LAZ001-002-201200-
NORTHWEST LOUISIANA

CITY           SKY/WX    TMP DP  RH WIND       PRES   REMARKS
SHREVEPORT     CLOUDY    45  43  93 N8        30.19S
BARKSDALE AFB  NOT AVBL
DTN SHREVEPORT CLOUDY    45  42  89 N3        30.21S

$$

LAZ014-016-201200-
NORTHEAST LOUISIANA

CITY           SKY/WX    TMP DP  RH WIND       PRES   REMARKS
MONROE         CLEAR     39  39 100 NE3       30.20R FOG
TALLULAH       CLOUDY    45  42  89 NE7       30.18S

$$




USA.gov is the U.S. government's official web portal to all federal, state and local government web resources and services.